User: anonymous
Location: Solon
(41.3849°N, 81.4081°W)
Time: 16:25:57
(UTC-04:00)
Language:

CZ-2C R/B - Orbit

View from above orbital plane
View from above orbital plane
View from above satellite
View from above satellite

Ground track
Ground track

The orbit data is extracted from the following two-line orbital elements,

1 28480U 04046B   14232.45987731 -.00000003  00000-0  13856-4 0  4101
2 28480 098.0984 023.5158 0142967 032.3108 032.7184 14.25322066507246
Epoch (UTC): 20 August 2014 11:02:13
Eccentricity: 0.0142967
inclination: 98.0984°
perigee height: 704 km
apogee height: 910 km
right ascension of ascending node: 23.5158°
argument of perigee: 32.3108°
revolutions per day: 14.25322066
mean anomaly at epoch: 32.7184°
orbit number at epoch: 50724

The dashed part of the orbit path shows where the satellite is in the earth's shadow,  

DLR